Location: Arapaho Elementary School
(32.9607°N, 96.7625°W)
Time: 13:31:04
(UTC+00:00)

Cosmos 1500 Rocket - Pass Details

Date: 11 July 2022
Orbit: 601 x 632 km, 82.5° (Epoch: 18 August)

Event Time Altitude Azimuth Distance (km) Brightness Sun altitude
Exits shadow 08:31:06 50° 6° (N) 802 4.3 -28.1°
Drops below altitude 10° 08:34:27 10° 6° (N) 2,017 7.0 -27.7°
Sets 08:36:42 0° 7° (N) 2,929 8.0 -27.5°
